Year,Month,Day,Hour,Minute,Value (Times are PST for temperature in C)
2017,03,29,04,07,7.80
2017,03,29,04,08,7.80
2017,03,29,04,09,7.80
2017,03,29,04,10,7.80
2017,03,29,04,11,7.80
2017,03,29,04,12,7.80
2017,03,29,04,13,7.80
2017,03,29,04,14,7.80
2017,03,29,04,15,7.80
2017,03,29,04,16,7.80
2017,03,29,04,17,7.80
2017,03,29,04,18,7.80
2017,03,29,04,19,7.80
2017,03,29,04,20,7.80
2017,03,29,04,21,7.80
2017,03,29,04,22,7.80
2017,03,29,04,23,7.80
2017,03,29,04,24,7.80
2017,03,29,04,25,7.80
2017,03,29,04,26,7.70
2017,03,29,04,27,7.70
2017,03,29,04,28,7.70
2017,03,29,04,29,7.70
2017,03,29,04,30,7.70
2017,03,29,04,31,7.70
2017,03,29,04,32,7.70
2017,03,29,04,33,7.70
2017,03,29,04,34,7.70
2017,03,29,04,35,7.70
2017,03,29,04,36,7.70
2017,03,29,04,37,7.70
2017,03,29,04,38,7.70
2017,03,29,04,39,7.70
2017,03,29,04,40,7.70
2017,03,29,04,41,7.70
2017,03,29,04,42,7.70
2017,03,29,04,43,7.70
2017,03,29,04,44,7.70
2017,03,29,04,45,7.70
2017,03,29,04,46,7.70
2017,03,29,04,47,7.70
2017,03,29,04,48,7.70
2017,03,29,04,49,7.70
2017,03,29,04,50,7.70
2017,03,29,04,51,7.60
2017,03,29,04,52,7.60
2017,03,29,04,53,7.60
2017,03,29,04,54,7.60
2017,03,29,04,55,7.60
2017,03,29,04,56,7.60
2017,03,29,04,57,7.60
2017,03,29,04,58,7.60
2017,03,29,04,59,7.60
2017,03,29,05,00,7.60
2017,03,29,05,01,7.60
2017,03,29,05,02,7.60
2017,03,29,05,03,7.60
2017,03,29,05,04,7.60
2017,03,29,05,05,7.60
2017,03,29,05,06,7.60
2017,03,29,05,07,7.60
2017,03,29,05,08,7.60
2017,03,29,05,09,7.60
2017,03,29,05,10,7.60
2017,03,29,05,11,7.60
2017,03,29,05,12,7.50
2017,03,29,05,13,7.50
2017,03,29,05,14,7.50
2017,03,29,05,15,7.50
2017,03,29,05,16,7.50
2017,03,29,05,17,7.50
2017,03,29,05,18,7.50
2017,03,29,05,19,7.50
2017,03,29,05,20,7.40
2017,03,29,05,21,7.40
2017,03,29,05,22,7.40
2017,03,29,05,23,7.40
2017,03,29,05,24,7.40
2017,03,29,05,25,7.40
2017,03,29,05,26,7.40
2017,03,29,05,27,7.40
2017,03,29,05,28,7.40
2017,03,29,05,29,7.40
2017,03,29,05,30,7.40
2017,03,29,05,31,7.40
2017,03,29,05,32,7.40
2017,03,29,05,33,7.40
2017,03,29,05,34,7.30
2017,03,29,05,35,7.30
2017,03,29,05,36,7.30
2017,03,29,05,37,7.30
2017,03,29,05,38,7.30
2017,03,29,05,39,7.30
2017,03,29,05,40,7.30
2017,03,29,05,41,7.30
2017,03,29,05,42,7.30
2017,03,29,05,43,7.30
2017,03,29,05,44,7.30
2017,03,29,05,45,7.30
2017,03,29,05,46,7.30
2017,03,29,05,47,7.30
2017,03,29,05,48,7.40
2017,03,29,05,49,7.40
2017,03,29,05,50,7.40
2017,03,29,05,51,7.40
2017,03,29,05,52,7.40
2017,03,29,05,53,7.40
2017,03,29,05,54,7.40
2017,03,29,05,55,7.40
2017,03,29,05,56,7.40
2017,03,29,05,57,7.40
2017,03,29,05,58,7.40
2017,03,29,05,59,7.40
2017,03,29,06,00,7.40
2017,03,29,06,01,7.40
2017,03,29,06,02,7.40
2017,03,29,06,03,7.40
2017,03,29,06,04,7.40
2017,03,29,06,05,7.40
2017,03,29,06,06,7.40
2017,03,29,06,07,7.40
2017,03,29,06,08,7.40
2017,03,29,06,09,7.40
2017,03,29,06,10,7.40
2017,03,29,06,11,7.40
2017,03,29,06,12,7.40
2017,03,29,06,13,7.40
2017,03,29,06,14,7.40
2017,03,29,06,15,7.40
2017,03,29,06,16,7.40
2017,03,29,06,17,7.40
2017,03,29,06,18,7.40
2017,03,29,06,19,7.40
2017,03,29,06,20,7.40
2017,03,29,06,21,7.40
2017,03,29,06,22,7.40
2017,03,29,06,23,7.40
2017,03,29,06,24,7.30
2017,03,29,06,25,7.30
2017,03,29,06,26,7.30
2017,03,29,06,27,7.30
2017,03,29,06,28,7.30
2017,03,29,06,29,7.30
2017,03,29,06,30,7.30
2017,03,29,06,31,7.30
2017,03,29,06,32,7.30
2017,03,29,06,33,7.30
2017,03,29,06,34,7.30
2017,03,29,06,35,7.30
2017,03,29,06,36,7.30
2017,03,29,06,37,7.30
2017,03,29,06,38,7.30
2017,03,29,06,39,7.30
2017,03,29,06,40,7.30
2017,03,29,06,41,7.20
2017,03,29,06,42,7.20
2017,03,29,06,43,7.20
2017,03,29,06,44,7.20
2017,03,29,06,45,7.20
2017,03,29,06,46,7.20
2017,03,29,06,47,7.20
2017,03,29,06,48,7.20
2017,03,29,06,49,7.20
2017,03,29,06,50,7.20
2017,03,29,06,51,7.20
2017,03,29,06,52,7.20
2017,03,29,06,53,7.20
2017,03,29,06,54,7.20
2017,03,29,06,55,7.10
2017,03,29,06,56,7.10
2017,03,29,06,57,7.10
2017,03,29,06,58,7.10
2017,03,29,06,59,7.10
2017,03,29,07,00,7.10
2017,03,29,07,01,7.10
2017,03,29,07,02,7.10
2017,03,29,07,03,7.10
2017,03,29,07,04,7.10
2017,03,29,07,05,7.00
2017,03,29,07,06,7.00
2017,03,29,07,07,7.00
2017,03,29,07,08,7.00
2017,03,29,07,09,7.00
2017,03,29,07,10,7.00
2017,03,29,07,11,7.00
2017,03,29,07,12,7.00
2017,03,29,07,13,7.00
2017,03,29,07,14,7.00
2017,03,29,07,15,7.00
2017,03,29,07,16,7.00
2017,03,29,07,17,7.00
2017,03,29,07,18,7.00
2017,03,29,07,19,7.00
2017,03,29,07,20,7.00
2017,03,29,07,21,7.00
2017,03,29,07,22,7.10
2017,03,29,07,23,7.10
2017,03,29,07,24,7.10
2017,03,29,07,25,7.10
2017,03,29,07,26,7.10
2017,03,29,07,27,7.10
2017,03,29,07,28,7.00
2017,03,29,07,29,7.00
2017,03,29,07,30,7.10
2017,03,29,07,31,7.10
2017,03,29,07,32,7.10
2017,03,29,07,33,7.00
2017,03,29,07,34,7.00
2017,03,29,07,35,7.00
2017,03,29,07,36,7.00
2017,03,29,07,37,7.00
2017,03,29,07,38,7.00
2017,03,29,07,39,7.00
2017,03,29,07,40,7.10
2017,03,29,07,41,7.10
2017,03,29,07,42,7.10
2017,03,29,07,43,7.10
2017,03,29,07,44,7.10
2017,03,29,07,45,7.00
2017,03,29,07,46,7.00
2017,03,29,07,47,7.00
2017,03,29,07,48,7.00
2017,03,29,07,49,7.00
2017,03,29,07,50,7.00
2017,03,29,07,51,7.00
2017,03,29,07,52,7.00
2017,03,29,07,53,7.00
2017,03,29,07,54,7.00
2017,03,29,07,55,7.00
2017,03,29,07,56,7.00
2017,03,29,07,57,7.00
2017,03,29,07,58,7.00
2017,03,29,07,59,7.00
2017,03,29,08,00,7.00
2017,03,29,08,01,7.00
2017,03,29,08,02,7.00
2017,03,29,08,03,7.00
2017,03,29,08,04,7.00
2017,03,29,08,05,7.00
2017,03,29,08,06,7.00
2017,03,29,08,07,7.00
2017,03,29,08,08,7.00
2017,03,29,08,09,7.00
2017,03,29,08,10,7.00
2017,03,29,08,11,7.00
2017,03,29,08,12,7.00
2017,03,29,08,13,7.00
2017,03,29,08,14,7.00
2017,03,29,08,15,7.00
2017,03,29,08,16,7.00
2017,03,29,08,17,6.90
2017,03,29,08,18,6.90
2017,03,29,08,19,6.90
2017,03,29,08,20,6.90
2017,03,29,08,21,6.90
2017,03,29,08,22,6.90
2017,03,29,08,23,6.90
2017,03,29,08,24,6.90
2017,03,29,08,25,6.90
2017,03,29,08,26,6.90
2017,03,29,08,27,6.90
2017,03,29,08,28,6.90
2017,03,29,08,29,6.90
2017,03,29,08,30,6.90
2017,03,29,08,31,6.90
2017,03,29,08,32,6.90
2017,03,29,08,33,6.90
2017,03,29,08,34,6.90
2017,03,29,08,35,6.90
2017,03,29,08,36,6.90
2017,03,29,08,37,6.90
2017,03,29,08,38,6.90
2017,03,29,08,39,6.90
2017,03,29,08,40,6.90
2017,03,29,08,41,6.90
2017,03,29,08,42,6.90
2017,03,29,08,43,6.90
2017,03,29,08,44,6.90
2017,03,29,08,45,6.90
2017,03,29,08,46,6.90
2017,03,29,12,47,7.10
2017,03,29,12,48,7.20
2017,03,29,12,49,7.20
2017,03,29,12,50,7.20
2017,03,29,12,51,7.20
2017,03,29,12,52,7.20
2017,03,29,12,53,7.20
2017,03,29,12,54,7.20
2017,03,29,12,55,7.20
2017,03,29,12,56,7.20
2017,03,29,12,57,7.20
2017,03,29,12,58,7.20
2017,03,29,12,59,7.20
2017,03,29,13,00,7.20
2017,03,29,13,01,7.20
2017,03,29,13,02,7.20
2017,03,29,13,03,7.20
2017,03,29,13,04,7.20
2017,03,29,13,05,7.20
2017,03,29,13,06,7.20
